Weather History for Missoula, MT

Change the Weather History Date:

Monday, December 23, 2013

  Actual Average Record
Temperature  
Mean Temperature 36 °F 23 °F  
Max Temperature 42 °F 30 °F 54 °F (1936)
Min Temperature 29 °F 16 °F -30 °F (1983)
Degree Days  
Heating Degree Days 29 42  
Month to date heating degree days 1024 940  
Since 1 July heating degree days 2879 2836  
Cooling Degree Days 0 0  
Month to date cooling degree days 0 0  
Year to date cooling degree days 579 332  
Moisture  
Dew Point 31 °F    
Average Humidity 85    
Maximum Humidity 100    
Minimum Humidity 70    
Precipitation  
Precipitation 0.27 in 0.04 in 1.40 in (1917)
Month to date precipitation 1.06 0.78  
Year to date precipitation 9.39 13.87  
Snow  
Snow 0.10 in - - ()
Month to date snowfall 12.1  
Year to date snowfall 41.3  
Since 1 July snowfall 13.9  
Snow Depth 3.00 in    
Sea Level Pressure  
Sea Level Pressure 30.14 in    
Wind  
Wind Speed 3 mph (WNW)    
Max Wind Speed 30 mph    
Max Gust Speed 41 mph    
Visibility 6 miles    
Events Rain , Snow    
T = Trace of Precipitation, MM = Missing Value Source: NWS Daily Summary

Daily Weather History Graph

Daily Weather History Graph

Search for Another Location

Airport:

Trip Planner

Search our weather history database for the weather conditions in past years. The results will help you decide how hot, cold, wet, or windy it might be!

Date:

Astronomy

Dec. 23, 2013 Rise Set
Actual Time 8:20 AM MST 4:51 PM MST
Civil Twilight 7:44 AM MST 5:26 PM MST
Nautical Twilight 7:05 AM MST 6:05 PM MST
Astronomical Twilight 6:28 AM MST 6:42 PM MST
Moon 11:28 PM MST (12/23) 11:26 AM MST (12/23)
Length of Visible Light 9h 42m
Length of Day
8h 31m
Waning Gibbous, 67% of the Moon is Illuminated
Dec 23
Waning Gibbous
Dec 25
Last Quarter
Jan 1
New
Jan 7
First Quarter
Jan 15
Full

Hourly Weather History & Observations

Time (MST) Temp. Windchill Dew Point Humidity Pressure Visibility Wind Dir Wind Speed Gust Speed Precip Events Conditions
12:53 AM 30.9 °F - 30.0 °F 96% 30.30 in 8.0 mi Calm Calm - N/A   Overcast
1:53 AM 30.9 °F - 28.9 °F 92% 30.30 in 8.0 mi Calm Calm - N/A   Overcast
2:53 AM 30.0 °F 26.5 °F 28.9 °F 96% 30.30 in 8.0 mi WSW 3.5 mph - N/A   Overcast
3:53 AM 30.0 °F - 28.9 °F 96% 30.29 in 8.0 mi Calm Calm - N/A   Overcast
4:53 AM 30.0 °F - 28.9 °F 96% 30.27 in 4.0 mi Calm Calm - N/A   Overcast
5:53 AM 30.0 °F - 30.0 °F 100% 30.25 in 6.0 mi Calm Calm - N/A   Overcast
6:53 AM 30.0 °F 26.5 °F 28.9 °F 96% 30.27 in 6.0 mi NW 3.5 mph - N/A   Overcast
7:53 AM 30.0 °F - 30.0 °F 100% 30.26 in 5.0 mi Calm Calm - 0.00 in   Overcast
8:08 AM 30.2 °F - 30.2 °F 100% 30.16 in 5.0 mi Calm Calm - 0.00 in   Overcast
8:23 AM 32.0 °F - 30.2 °F 93% 30.16 in 6.0 mi Calm Calm - 0.01 in Rain Light Freezing Rain
8:53 AM 30.9 °F 26.2 °F 30.0 °F 96% 30.25 in 3.0 mi South 4.6 mph - 0.02 in Rain Light Freezing Rain
9:11 AM 30.2 °F 26.7 °F 30.2 °F 100% 30.17 in 3.0 mi South 3.5 mph - 0.01 in   Overcast
9:53 AM 32.0 °F - 30.9 °F 96% 30.24 in 4.0 mi Calm Calm - 0.01 in   Overcast
10:53 AM 33.1 °F - 30.9 °F 92% 30.24 in 5.0 mi Calm Calm - 0.00 in   Overcast
11:53 AM 33.1 °F - 32.0 °F 96% 30.22 in 4.0 mi Calm Calm - N/A   Overcast
12:53 PM 33.1 °F - 32.0 °F 96% 30.18 in 10.0 mi Calm Calm - 0.00 in   Overcast
1:53 PM 34.0 °F 31.0 °F 32.0 °F 92% 30.12 in 7.0 mi East 3.5 mph - N/A   Overcast
2:53 PM 37.0 °F - 33.1 °F 86% 30.09 in 6.0 mi Calm Calm - N/A   Overcast
3:53 PM 36.0 °F 33.3 °F 33.1 °F 89% 30.07 in 7.0 mi Variable 3.5 mph - 0.00 in Rain Light Rain
4:53 PM 37.0 °F 32.4 °F 33.1 °F 86% 30.04 in 10.0 mi SW 5.8 mph - 0.00 in   Overcast
5:53 PM 35.1 °F 30.1 °F 34.0 °F 96% 30.04 in 5.0 mi NW 5.8 mph - 0.01 in Rain Light Rain
6:53 PM 35.1 °F 31.0 °F 34.0 °F 96% 30.02 in 5.0 mi West 4.6 mph - 0.04 in Rain Light Rain
7:09 PM 35.6 °F 29.9 °F 33.8 °F 93% 29.94 in 4.0 mi NW 6.9 mph - 0.02 in Rain Light Rain
7:24 PM 35.6 °F 31.7 °F 33.8 °F 93% 29.95 in 3.0 mi NNW 4.6 mph - 0.05 in Rain Rain
7:53 PM 35.1 °F 31.0 °F 34.0 °F 96% 30.04 in 5.0 mi South 4.6 mph - 0.11 in Rain Light Rain
8:01 PM 33.8 °F - 33.8 °F 100% 29.97 in 6.0 mi Calm Calm - 0.01 in Rain Light Rain
8:08 PM 35.6 °F 26.6 °F 33.8 °F 93% 30.00 in 5.0 mi NNW 13.8 mph 31.1 mph 0.01 in Rain Light Rain
8:12 PM 33.8 °F 22.5 °F 33.8 °F 100% 30.01 in 2.5 mi NW 19.6 mph 38.0 mph 0.03 in Snow Light Snow
8:20 PM 33.8 °F 20.5 °F 32.0 °F 93% 30.02 in 1.5 mi NW 27.6 mph 41.4 mph 0.06 in Snow Light Snow
8:24 PM 33.8 °F 21.6 °F 32.0 °F 93% 30.02 in 2.0 mi NW 23.0 mph 41.4 mph 0.08 in Snow Light Snow
8:34 PM 35.6 °F 27.5 °F 33.8 °F 93% 30.00 in 5.0 mi WNW 11.5 mph 26.5 mph 0.08 in Rain Light Rain
8:53 PM 36.0 °F 29.6 °F 33.1 °F 89% 30.09 in 10.0 mi North 8.1 mph - 0.08 in   Overcast
9:53 PM 36.0 °F 30.3 °F 30.9 °F 82% 30.12 in 10.0 mi WSW 6.9 mph - N/A   Scattered Clouds
10:53 PM 39.0 °F 34.8 °F 30.0 °F 70% 30.16 in 10.0 mi WNW 5.8 mph - N/A   Overcast
11:22 PM 37.4 °F 28.9 °F 26.6 °F 65% 30.11 in 10.0 mi West 13.8 mph - N/A   Mostly Cloudy
11:53 PM 35.1 °F 31.0 °F 28.9 °F 78% 30.21 in 10.0 mi WNW 4.6 mph - N/A   Overcast